Weather History for Fergus Falls, MN

Change the Weather History Date:

Sunday, December 8, 2013

  Actual Average Record
Temperature  
Mean Temperature -4 °F -  
Max Temperature 6 °F 23 °F 50 °F (1984)
Min Temperature -13 °F 6 °F -18 °F (2007)
Degree Days  
Heating Degree Days 68    
Moisture  
Dew Point -7 °F    
Average Humidity 77    
Maximum Humidity 85    
Minimum Humidity 70    
Precipitation  
Precipitation 0.00 in - - ()
Sea Level Pressure  
Sea Level Pressure 30.21 in    
Wind  
Wind Speed 5 mph (SE)    
Max Wind Speed 14 mph    
Max Gust Speed -    
Visibility 7 miles    
Events Snow    
Averages and records for this station are not official NWS values.
T = Trace of Precipitation, MM = Missing Value Source: NWS Daily Summary

Daily Weather History Graph

Daily Weather History Graph

Search for Another Location

Airport:

Trip Planner

Search our weather history database for the weather conditions in past years. The results will help you decide how hot, cold, wet, or windy it might be!

Date:

Astronomy

Dec. 08, 2013 Rise Set
Actual Time 7:54 AM CST 4:38 PM CST
Civil Twilight 7:20 AM CST 5:12 PM CST
Nautical Twilight 6:42 AM CST 5:50 PM CST
Astronomical Twilight 6:06 AM CST 6:27 PM CST
Moon 11:59 AM CST (12/8) 11:46 PM CST (12/8)
Length of Visible Light 9h 52m
Length of Day
8h 43m
Waxing Crescent, 40% of the Moon is Illuminated
Dec 8
Waxing Crescent
Dec 9
First Quarter
Dec 17
Full
Dec 25
Last Quarter
Jan 1
New

Hourly Weather History & Observations

Time (CST) Temp. Windchill Dew Point Humidity Pressure Visibility Wind Dir Wind Speed Gust Speed Precip Events Conditions
12:13 AM -13.0 °F -22.7 °F -18.4 °F 77% 30.50 in 10.0 mi SE 3.5 mph - N/A   Overcast
12:33 AM -13.0 °F -27.0 °F -18.4 °F 77% 30.49 in 10.0 mi SE 5.8 mph - N/A   Mostly Cloudy
12:53 AM -11.2 °F -20.6 °F -18.4 °F 70% 30.48 in 10.0 mi SE 3.5 mph - N/A   Mostly Cloudy
1:13 AM -11.2 °F - -18.4 °F 70% 30.46 in 10.0 mi Calm Calm - N/A   Overcast
1:33 AM -11.2 °F -23.0 °F -18.4 °F 70% 30.45 in 10.0 mi SE 4.6 mph - N/A   Overcast
1:53 AM -11.2 °F -24.8 °F -16.6 °F 77% 30.44 in 10.0 mi SE 5.8 mph - N/A   Overcast
2:13 AM -9.4 °F -18.6 °F -16.6 °F 71% 30.43 in 10.0 mi ESE 3.5 mph - N/A   Overcast
2:33 AM -9.4 °F -22.7 °F -16.6 °F 71% 30.42 in 10.0 mi SE 5.8 mph - N/A   Overcast
2:53 AM -9.4 °F -22.7 °F -16.6 °F 71% 30.41 in 10.0 mi ESE 5.8 mph - N/A   Overcast
3:13 AM -9.4 °F -20.9 °F -14.8 °F 77% 30.40 in 10.0 mi SE 4.6 mph - N/A   Overcast
3:33 AM -7.6 °F -18.8 °F -14.8 °F 71% 30.39 in 10.0 mi ESE 4.6 mph - N/A   Overcast
3:53 AM -7.6 °F -20.6 °F -14.8 °F 71% 30.38 in 10.0 mi ESE 5.8 mph - N/A   Overcast
4:13 AM -7.6 °F -20.6 °F -13.0 °F 77% 30.36 in 10.0 mi ESE 5.8 mph - N/A   Overcast
4:33 AM -7.6 °F -20.6 °F -13.0 °F 77% 30.35 in 10.0 mi ESE 5.8 mph - N/A   Overcast
4:53 AM -7.6 °F -16.5 °F -13.0 °F 77% 30.34 in 10.0 mi East 3.5 mph - N/A   Scattered Clouds
5:13 AM -7.6 °F -20.6 °F -14.8 °F 71% 30.34 in 10.0 mi ESE 5.8 mph - N/A   Mostly Cloudy
5:33 AM -7.6 °F -18.8 °F -14.8 °F 71% 30.33 in 10.0 mi East 4.6 mph - N/A   Scattered Clouds
5:53 AM -7.6 °F - -13.0 °F 77% 30.32 in 10.0 mi Calm Calm - N/A   Mostly Cloudy
6:13 AM -7.6 °F -20.6 °F -13.0 °F 77% 30.31 in 10.0 mi ESE 5.8 mph - N/A   Scattered Clouds
6:33 AM -5.8 °F -19.9 °F -11.2 °F 77% 30.31 in 3.0 mi ESE 6.9 mph - N/A   Haze
6:53 AM -5.8 °F -19.9 °F -11.2 °F 77% 30.30 in 3.0 mi ESE 6.9 mph - N/A   Haze
7:13 AM -4.0 °F -16.3 °F -9.4 °F 78% 30.30 in 3.0 mi ESE 5.8 mph - N/A Snow Light Snow
7:33 AM -2.2 °F -14.2 °F -9.4 °F 71% 30.29 in 3.0 mi SE 5.8 mph - N/A Snow Light Snow
7:53 AM -2.2 °F -15.6 °F -7.6 °F 78% 30.28 in 2.5 mi SE 6.9 mph - N/A Snow Light Snow
8:13 AM -2.2 °F -15.6 °F -7.6 °F 78% 30.27 in 2.0 mi SE 6.9 mph - N/A Snow Light Snow
8:34 AM -2.2 °F -15.6 °F -7.6 °F 78% 30.27 in 4.0 mi SE 6.9 mph - N/A Snow Light Snow
8:53 AM -2.2 °F -14.2 °F -7.6 °F 78% 30.27 in 5.0 mi SE 5.8 mph - N/A   Haze
9:13 AM -2.2 °F -16.8 °F -7.6 °F 78% 30.26 in 7.0 mi SE 8.1 mph - N/A Snow Light Snow
9:33 AM -0.4 °F -15.7 °F -7.6 °F 72% 30.25 in 7.0 mi SE 9.2 mph - N/A   Clear
9:53 AM -0.4 °F -15.7 °F -5.8 °F 78% 30.25 in 10.0 mi SE 9.2 mph - N/A   Clear
10:13 AM -0.4 °F -16.7 °F -5.8 °F 78% 30.24 in 10.0 mi SE 10.4 mph - N/A Snow Light Snow
10:33 AM -0.4 °F -15.7 °F -5.8 °F 78% 30.23 in 10.0 mi SE 9.2 mph - N/A   Clear
10:53 AM 1.4 °F -13.5 °F -5.8 °F 72% 30.23 in 10.0 mi SE 9.2 mph - N/A   Clear
11:13 AM 1.4 °F -12.5 °F -5.8 °F 72% 30.21 in 7.0 mi SE 8.1 mph - N/A   Clear
11:33 AM 1.4 °F -14.5 °F -4.0 °F 78% 30.20 in 10.0 mi SSE 10.4 mph - N/A   Clear
11:53 AM 3.2 °F -11.3 °F -4.0 °F 72% 30.19 in 10.0 mi SSE 9.2 mph - N/A   Clear
12:13 PM 3.2 °F -11.3 °F -2.2 °F 78% 30.18 in 10.0 mi SSE 9.2 mph - N/A   Clear
12:33 PM 5.0 °F -10.8 °F -2.2 °F 72% 30.16 in 10.0 mi SSE 11.5 mph - N/A   Clear
12:53 PM 5.0 °F -12.3 °F -0.4 °F 78% 30.15 in 7.0 mi SSE 13.8 mph - N/A   Clear
1:13 PM 6.8 °F -9.3 °F -0.4 °F 72% 30.14 in 10.0 mi SSE 12.7 mph - N/A   Clear
1:33 PM 6.8 °F -8.6 °F -0.4 °F 72% 30.13 in 7.0 mi SSE 11.5 mph - N/A   Clear
1:53 PM 6.8 °F -6.9 °F -0.4 °F 72% 30.13 in 4.0 mi South 9.2 mph - N/A   Haze
2:13 PM 6.8 °F -6.9 °F 1.4 °F 79% 30.11 in 5.0 mi SSE 9.2 mph - N/A   Haze
2:33 PM 6.8 °F -7.8 °F -0.4 °F 72% 30.11 in 10.0 mi South 10.4 mph - N/A   Mostly Cloudy
2:53 PM 6.8 °F -5.9 °F 1.4 °F 79% 30.10 in 5.0 mi SSE 8.1 mph - N/A   Haze
3:13 PM 6.8 °F -4.8 °F 1.4 °F 79% 30.10 in 5.0 mi SSE 6.9 mph - N/A Snow Light Snow
3:33 PM 6.8 °F -3.5 °F 1.4 °F 79% 30.10 in 2.5 mi South 5.8 mph - N/A Snow Light Snow
3:53 PM 6.8 °F -3.5 °F 1.4 °F 79% 30.10 in 1.8 mi South 5.8 mph - N/A Snow Light Snow
4:13 PM 6.8 °F - 1.4 °F 79% 30.09 in 1.8 mi Calm Calm - N/A Snow Light Snow
4:33 PM 6.8 °F - 1.4 °F 79% 30.09 in 1.8 mi Calm Calm - N/A Snow Light Snow
4:53 PM 6.8 °F - 1.4 °F 79% 30.09 in 2.5 mi Calm Calm - N/A Snow Light Snow
5:14 PM 5.0 °F - -0.4 °F 78% 30.09 in 5.0 mi Calm Calm - N/A Snow Light Snow
5:33 PM 5.0 °F - -0.4 °F 78% 30.08 in 2.0 mi Calm Calm - N/A Snow Light Snow
5:53 PM 6.8 °F - 1.4 °F 79% 30.08 in 2.0 mi Calm Calm - N/A Snow Light Snow
6:14 PM 5.0 °F - -0.4 °F 78% 30.07 in 4.0 mi Calm Calm - N/A Snow Light Snow
6:33 PM 5.0 °F - -0.4 °F 78% 30.07 in 5.0 mi Calm Calm - N/A Snow Light Snow
6:53 PM 3.2 °F - -0.4 °F 85% 30.07 in 4.0 mi Calm Calm - N/A Snow Light Snow
7:14 PM 3.2 °F - -0.4 °F 85% 30.07 in 3.0 mi Calm Calm - N/A Snow Light Snow
7:33 PM 3.2 °F - -0.4 °F 85% 30.07 in 3.0 mi Calm Calm - N/A Snow Light Snow
7:53 PM 3.2 °F - -2.2 °F 78% 30.06 in 2.5 mi Calm Calm - N/A Snow Light Snow
8:13 PM 1.4 °F - -2.2 °F 85% 30.06 in 2.0 mi Calm Calm - N/A Snow Light Snow
8:33 PM 1.4 °F - -2.2 °F 85% 30.05 in 3.0 mi Calm Calm - N/A Snow Light Snow
8:53 PM -0.4 °F - -5.8 °F 78% 30.05 in 4.0 mi Calm Calm - N/A Snow Light Snow
9:13 PM -0.4 °F - -4.0 °F 85% 30.05 in 7.0 mi Calm Calm - N/A Snow Light Snow
9:33 PM -0.4 °F -10.4 °F -5.8 °F 78% 30.05 in 3.0 mi SW 4.6 mph - N/A Snow Light Snow
9:53 PM -2.2 °F -12.5 °F -7.6 °F 78% 30.05 in 7.0 mi SSW 4.6 mph - N/A   Mostly Cloudy
10:13 PM -2.2 °F -14.2 °F -5.8 °F 85% 30.05 in 7.0 mi SW 5.8 mph - N/A   Clear
10:33 PM -0.4 °F -13.4 °F -5.8 °F 78% 30.05 in 7.0 mi WSW 6.9 mph - N/A   Mostly Cloudy
10:53 PM -0.4 °F -13.4 °F -4.0 °F 85% 30.05 in 7.0 mi WSW 6.9 mph - N/A   Overcast
11:13 PM -0.4 °F -13.4 °F -5.8 °F 78% 30.04 in 5.0 mi West 6.9 mph - N/A   Haze
11:33 PM -2.2 °F -18.0 °F -9.4 °F 71% 30.04 in 10.0 mi West 9.2 mph - N/A   Scattered Clouds
11:53 PM -2.2 °F -18.9 °F -7.6 °F 78% 30.05 in 4.0 mi West 10.4 mph - N/A   Haze